Theta_e
306 307 306 305 305 305 306 299 299 303 304 303 297 303 301 303 304 302 304 303 302 302 302 304 304 305 303 302 302 304 302 301 304 305 302 304 304 305 305 309 306 301 303 311
306 307 307 306 305 305 305 299 298 303 304 302 302 301 303 303 302 302 302 303 302 302 303 305 303 304 304 303 303 302 302 303 301 304 303 302 306 305 301 301 302 304 307 309
307 308 307 306 306 305 305 299 302 299 298 296 303 303 303 303 301 302 302 302 302 303 304 301 304 306 305 303 304 307 303 302 302 305 305 303 306 304 302 303 304 304 303 306
307 308 308 306 306 306 304 297 300 298 299 299 300 301 302 303 303 301 300 302 302 303 303 303 302 302 305 304 306 303 301 303 301 302 301 303 304 304 302 301 304 306 306 302
306 308 308 307 306 306 303 298 296 295 296 296 299 301 302 302 302 301 302 302 300 300 302 302 302 301 304 304 303 303 299 302 301 302 301 300 302 302 301 302 303 301 301 303
307 308 308 307 307 306 302 297 295 295 298 297 297 298 300 301 301 300 299 300 300 300 301 299 300 299 298 299 302 301 301 300 300 299 300 300 300 301 301 302 301 302 304 305
308 309 308 307 307 307 306 301 297 296 302 297 297 299 298 299 299 301 300 298 299 299 298 298 298 299 301 299 299 298 298 297 299 300 299 301 300 298 300 301 301 300 301 301
308 309 308 307 307 306 306 304 300 298 302 298 298 299 298 298 298 300 300 299 297 297 299 299 300 298 300 300 298 298 296 298 302 302 299 298 302 298 299 300 301 298 301 301
297 301 303 303 304 305 305 305 303 298 302 302 302 300 298 298 299 299 300 299 297 297 298 299 300 301 300 301 302 297 298 296 299 299 302 303 302 299 297 298 301 298 297 297
292 296 297 298 299 299 300 303 303 298 300 301 298 302 304 298 298 299 300 300 300 298 299 301 300 299 297 302 302 302 302 301 303 300 301 300 298 298 296 302 303 299 297 299
292 293 295 297 297 296 296 297 299 299 300 300 298 299 298 298 299 301 299 300 299 299 302 301 300 298 296 298 298 300 302 302 303 302 303 304 297 298 299 299 297 300 298 299
293 293 293 294 294 298 296 296 296 295 296 299 299 300 300 301 301 302 298 300 299 300 301 299 297 299 293 294 298 296 301 301 301 301 303 299 295 298 297 295 297 300 300 298
292 292 293 293 293 294 294 296 296 296 296 297 297 298 299 300 301 302 303 298 299 299 298 299 298 300 295 297 296 295 296 296 300 300 300 300 299 297 295 295 296 296 297 297
292 293 293 293 294 293 294 294 293 295 296 297 295 297 299 300 301 302 301 302 299 298 298 300 300 301 297 298 298 296 295 297 299 298 298 299 300 298 298 297 295 295 294 295
293 293 293 293 293 293 293 291 290 293 295 296 295 294 294 295 299 302 301 300 300 299 299 301 302 299 300 296 294 293 294 298 301 303 302 301 299 298 298 297 297 296 295 296
292 293 293 293 293 293 293 294 295 293 293 294 296 294 296 294 296 297 296 298 298 296 299 301 300 298 301 303 300 299 297 299 300 301 301 300 296 294 295 296 296 295 295 294
293 293 293 293 293 293 293 292 295 294 291 293 294 299 295 294 294 293 294 296 297 298 298 299 300 300 302 302 304 299 299 297 297 297 296 297 296 296 295 294 294 295 296 295
293 293 293 292 293 293 294 293 292 293 292 292 291 296 296 294 296 297 294 296 296 297 299 298 298 298 300 302 298 298 298 297 297 296 295 295 293 292 293 293 293 294 294 293
293 294 293 292 292 291 291 292 294 294 294 293 294 293 293 294 295 296 296 296 297 296 298 299 298 300 300 298 298 296 295 295 295 294 294 294 294 294 294 294 294 294 294 294
292 293 291 289 291 293 292 292 292 291 294 294 292 291 294 294 296 297 295 296 297 296 297 297 299 298 292 291 293 292 292 292 292 294 295 295 296 296 296 296 294 294 294 295
291 291 289 290 290 289 287 290 294 295 296 295 295 293 293 292 296 297 294 294 295 297 297 298 298 297 292 290 292 291 291 291 291 292 292 293 293 294 294 293 291 290 290 291
291 290 289 288 286 285 289 288 290 293 293 292 293 292 294 295 292 296 293 295 293 295 297 299 298 293 291 290 292 292 289 289 290 290 290 290 290 289 290 289 289 289 289 289
291 289 288 285 282 284 287 284 285 288 289 289 288 290 291 294 295 296 297 297 297 295 297 295 291 291 290 289 290 291 290 289 290 291 291 290 289 289 289 289 289 289 289 289
287 285 286 287 279 281 284 284 282 283 283 286 288 288 291 289 291 294 292 293 294 294 295 291 289 288 287 289 289 289 289 288 287 285 285 285 287 289 290 289 290 292 292 292
285 285 288 282 284 279 278 275 278 283 281 283 284 287 291 290 289 293 291 290 294 292 290 290 289 286 283 285 285 285 283 283 283 283 284 284 284 284 284 285 285 285 286 286
280 281 282 284 280 279 281 281 283 284 284 284 286 290 288 290 290 292 291 290 290 290 288 289 286 285 283 283 284 284 283 282 281 283 283 283 283 283 283 285 285 285 285 285
278 278 282 279 278 279 283 284 284 283 284 283 286 287 287 286 290 290 289 289 289 289 289 286 284 283 282 282 282 282 282 282 282 282 282 282 283 283 283 282 283 284 284 284
Wind_Speed
20 21 20 19 18 21 11 3 3 1 5 2 1 2 5 1 2 1 4 3 6 7 5 4 4 6 5 6 6 6 4 3 3 5 1 1 4 2 5 3 4 1 2 6
22 22 19 17 16 17 9 2 3 1 2 2 3 3 4 4 5 5 4 5 6 4 6 3 5 4 1 6 6 6 4 1 2 6 3 1 4 5 4 3 2 6 5 6
24 22 19 16 13 13 8 1 3 2 2 1 3 2 5 4 4 3 4 3 2 2 5 6 2 3 3 5 4 5 3 2 5 6 4 3 4 4 4 6 2 3 6 8
28 24 21 16 12 9 4 1 4 1 3 4 4 3 2 4 4 4 6 3 7 8 5 4 6 5 2 1 3 2 5 4 4 5 7 3 4 5 8 8 9 8 9 8
31 28 24 18 13 8 4 2 2 1 2 2 5 7 6 9 4 8 5 6 5 8 7 8 8 6 5 5 1 4 1 3 4 4 1 6 6 9 9 11 6 9 5 20
35 31 27 23 17 11 5 5 3 3 2 2 3 5 6 6 5 6 4 9 5 5 15 6 2 3 2 5 9 7 5 4 2 4 3 4 7 11 13 5 6 7 10 17
38 33 29 25 21 18 12 7 5 3 4 4 5 3 4 5 6 4 1 5 5 2 4 4 5 4 2 5 5 5 6 5 3 2 3 3 6 3 3 11 9 14 12 11
37 35 31 26 21 19 17 11 7 4 3 5 5 9 7 6 7 5 5 6 4 2 3 2 0 2 2 2 3 4 2 5 3 2 3 7 5 3 6 6 6 8 15 13
24 13 8 6 9 16 20 18 17 3 2 8 9 4 5 4 4 2 4 1 2 3 2 3 5 5 5 4 1 4 4 4 3 3 4 6 3 1 3 2 6 1 5 6
31 21 10 6 7 6 7 4 16 4 2 3 6 5 4 4 1 2 1 4 3 2 3 3 4 5 3 5 7 6 4 1 7 4 3 7 8 4 3 2 6 3 3 3
23 24 27 10 6 5 9 6 6 0 2 3 3 4 5 3 3 3 3 2 1 2 4 4 4 4 5 2 5 6 8 8 4 4 3 8 7 5 7 5 1 2 3 3
20 21 22 21 24 13 3 2 8 6 3 3 10 16 19 11 5 2 4 2 3 4 2 2 2 3 1 4 3 1 4 6 5 9 7 2 7 5 4 2 3 3 2 4
17 17 18 19 18 16 19 8 4 3 2 4 3 6 21 23 24 18 3 2 3 3 3 3 2 4 4 4 6 4 4 4 3 1 5 10 8 7 6 6 7 4 6 5
17 16 16 15 14 15 13 12 14 4 2 4 4 5 9 10 11 15 18 13 3 3 1 2 3 3 5 4 2 5 3 6 4 5 6 10 11 8 9 5 7 8 8 8
20 19 16 14 13 14 15 19 20 15 5 3 5 19 26 25 20 22 17 12 3 2 3 3 4 2 2 1 1 4 5 7 6 14 15 9 9 4 2 4 6 9 7 5
18 18 18 15 11 11 12 3 10 12 6 3 3 4 3 5 2 7 7 6 3 2 2 2 2 1 2 3 3 4 12 13 17 17 14 12 7 8 4 5 8 7 6 8
19 18 15 17 13 9 3 4 2 7 16 3 4 3 1 1 3 2 2 4 2 3 2 4 3 3 4 2 6 3 3 6 7 8 5 9 3 5 5 4 7 8 7 6
20 18 17 15 16 14 12 23 23 15 4 3 3 3 4 4 2 2 1 2 2 3 2 2 2 2 3 4 5 5 4 7 6 6 4 4 7 7 7 5 3 4 4 4
18 16 14 13 3 3 4 4 5 7 6 3 4 2 3 2 2 2 1 2 2 2 3 3 4 3 4 5 3 4 5 3 7 12 11 8 4 6 5 4 4 3 4 4
14 5 2 2 4 6 11 1 1 3 4 4 3 1 2 1 1 1 1 1 2 2 4 3 3 2 5 8 6 5 6 6 6 4 7 7 4 5 5 5 5 4 6 5
1 2 2 4 5 2 1 2 3 3 2 1 1 5 5 4 4 4 3 3 2 2 4 6 3 2 3 6 5 5 6 7 7 5 4 5 4 3 5 5 4 4 4 2
4 2 3 4 3 2 1 3 3 3 3 3 3 3 3 2 1 3 2 4 2 5 4 3 2 1 3 5 5 6 6 7 7 8 6 7 8 9 6 5 5 6 4 3
3 2 1 2 2 3 2 3 3 3 4 2 5 5 2 2 2 3 2 2 1 1 2 3 2 5 7 7 5 4 6 8 7 7 8 8 8 12 10 7 10 11 13 12
2 3 1 1 3 2 3 3 3 3 2 5 5 3 2 2 2 1 3 1 2 2 3 3 3 7 9 6 7 8 8 8 7 7 9 9 10 9 12 13 9 6 4 3
2 2 1 2 2 1 2 2 2 2 2 2 3 3 2 2 3 3 3 4 4 4 3 2 5 6 6 8 8 7 6 6 6 9 8 10 12 11 11 14 11 9 7 6
3 3 2 1 2 3 2 2 3 2 3 2 1 2 3 2 2 3 5 3 3 2 1 2 3 4 4 5 5 5 7 9 10 11 11 11 12 11 10 11 10 10 10 9
3 2 1 1 1 2 2 1 3 5 2 2 1 4 3 3 2 3 4 3 2 2 2 2 3 4 5 5 6 7 9 10 12 12 14 12 12 11 12 8 15 14 13 11
Wind_Direction
303 312 318 329 338 344 347 12 327 33 169 81 8 217 198 246 227 202 239 207 195 192 191 235 247 224 220 170 154 172 203 150 188 197 321 217 170 246 159 138 212 118 141 279
295 300 303 318 333 345 339 306 238 160 177 232 236 264 278 225 171 216 201 239 212 180 192 224 205 222 224 160 153 170 192 208 35 349 357 347 220 192 154 101 73 197 145 263
284 286 288 298 314 331 344 62 300 320 65 180 183 232 247 250 206 214 192 234 156 172 217 203 241 238 207 191 198 152 126 186 193 194 204 142 194 201 177 134 147 195 219 250
274 275 273 275 287 310 328 123 243 226 238 250 192 178 233 209 245 221 183 227 213 186 216 205 219 210 167 201 219 115 146 218 190 253 249 228 235 215 176 197 205 197 252 220
268 266 259 257 260 270 211 202 172 351 273 288 172 186 233 203 220 163 231 214 209 197 206 196 199 164 188 191 132 175 295 221 158 282 316 223 262 236 221 221 220 261 283 269
260 250 247 243 237 224 197 185 153 127 264 230 144 225 216 221 172 227 204 205 157 205 236 213 228 188 154 162 157 180 163 160 121 264 348 313 289 237 206 180 209 185 217 246
251 243 236 233 227 219 203 185 143 136 247 201 204 244 216 232 226 239 189 155 155 213 95 79 73 83 159 159 187 150 149 148 160 262 344 254 242 161 181 210 241 216 264 257
234 233 225 225 223 226 217 191 169 175 234 203 272 252 238 264 253 236 219 210 186 137 93 59 39 330 311 216 19 204 159 139 152 204 218 292 283 194 159 178 279 220 230 264
7 24 123 154 205 210 213 216 202 183 188 213 202 210 210 239 218 260 209 102 139 99 125 147 207 217 220 212 122 49 90 73 140 143 187 227 259 220 198 194 299 222 179 238
4 356 360 34 45 24 309 220 211 159 219 235 155 194 198 176 207 227 184 170 147 90 146 189 182 237 168 191 179 169 141 185 206 184 226 283 240 165 159 141 240 154 189 190
359 352 7 355 343 336 345 342 27 355 225 277 231 209 173 164 183 177 165 103 243 101 178 179 210 196 221 187 164 180 169 157 188 143 172 262 149 87 175 219 227 202 206 209
351 352 354 357 1 0 333 307 342 342 254 291 289 269 269 259 239 182 202 232 163 180 141 217 129 202 158 178 238 8 223 195 181 187 208 243 216 207 225 158 223 231 231 235
336 340 342 353 351 351 354 325 307 285 275 268 256 229 262 247 240 231 231 259 206 191 200 157 159 227 142 180 228 206 234 171 220 141 241 239 232 252 239 209 228 232 239 245
320 321 324 326 338 341 349 327 305 294 309 283 284 301 266 266 240 247 235 254 66 75 66 198 206 202 188 214 248 199 185 144 195 260 284 287 259 221 246 243 239 257 253 226
305 305 303 307 321 321 322 308 288 248 219 278 293 313 286 254 240 220 221 220 155 141 171 205 205 209 160 171 356 228 194 197 222 259 256 252 273 251 190 227 242 246 251 260
316 311 299 302 296 322 336 324 62 83 245 257 271 267 299 24 175 193 157 165 128 162 209 209 219 269 188 224 235 261 203 223 233 251 267 276 270 279 260 241 254 258 235 239
299 300 308 294 290 289 240 241 195 302 2 349 304 276 305 83 128 75 90 162 157 173 195 213 190 184 195 240 249 207 244 241 268 282 299 298 260 264 309 273 278 281 266 269
289 296 305 302 289 281 264 269 270 266 187 192 255 271 320 170 164 123 150 157 174 197 211 168 187 145 199 250 226 244 354 343 304 328 340 265 291 299 288 290 310 294 300 305
296 291 301 299 235 208 245 236 199 237 243 220 215 204 249 19 49 83 160 197 195 175 206 213 153 168 217 357 3 354 0 345 307 315 310 312 266 279 314 340 323 294 282 258
312 306 236 286 214 258 290 23 236 195 203 218 259 292 277 139 195 181 207 221 247 211 223 145 217 212 108 14 12 10 352 327 313 325 335 345 355 9 347 330 314 289 284 289
333 168 236 302 298 291 27 265 257 196 219 225 248 212 229 207 180 199 200 201 210 233 211 183 191 128 356 338 0 14 2 4 10 19 13 356 331 317 303 308 333 334 322 292
173 170 297 332 18 15 68 251 315 337 26 355 329 323 293 284 244 190 193 196 151 236 143 196 112 35 329 337 350 12 5 10 21 26 21 5 358 343 343 347 359 12 35 66
149 90 19 66 311 53 175 310 322 343 344 355 345 329 294 292 239 242 244 252 204 42 107 71 39 340 346 343 341 3 19 16 8 10 17 21 31 44 47 34 45 65 69 83
102 123 243 207 332 255 192 197 216 261 261 306 316 273 285 297 327 296 29 316 17 58 58 60 358 357 338 351 21 24 8 10 6 6 12 19 16 10 31 31 20 16 55 69
91 124 190 214 232 296 242 245 340 275 226 287 307 279 248 313 337 354 15 29 57 37 60 51 346 338 342 6 14 8 358 1 6 5 9 12 15 20 17 17 19 22 11 3
73 44 54 337 48 318 14 348 289 301 310 281 281 315 1 13 326 352 12 55 38 64 63 359 326 338 346 354 356 1 354 6 2 10 9 8 9 0 346 355 13 6 356 341
49 332 296 123 112 200 284 320 294 308 345 13 355 18 355 300 35 38 18 31 34 22 344 322 353 358 345 344 355 3 5 6 7 5 6 359 358 2 8 3 352 346 340 331